Home   Weather   Espoo   Past weeks

Flag for Finland Past Weather in Espoo, Finland — Yesterday and Last 2 Weeks

Now
59 °F

Scattered clouds.


Feels Like: 57 °F
Forecast: 49 / 67 °F
Wind: 12 mph from Northwest

Location: Helsinki-Vantaa

Current Time: Aug 30, 2016 at 4:05:11 PM

Latest Report: Aug 30, 2016 at 3:20 PM


Visibility: N/A

Pressure: 29.80 "Hg

Humidity: 77%

Dew Point: 52 °F

Location of EspooLocation

Past Weather in Espoo — Graph

°F

Espoo Temperature Yesterday

Maximum temperature yesterday: 59 °F (at 11:20 AM)
Minimum temperature yesterday: 52 °F (at 1:20 AM)
Average temperature yesterday: 55 °F

High & Low Weather Summary for the Past Weeks

 TemperatureHumidityPressure
High75 °F (Aug 21, 3:50 PM)100% (Aug 16, 2:20 AM)30.21 "Hg (Aug 16, 2:20 AM)
Low46 °F (Aug 28, 5:50 AM)46% (Aug 27, 4:50 PM)29.59 "Hg (Aug 29, 9:50 PM)
Average60 °F86%29.95 "Hg
* Reported Aug 15 2:20 PM — Aug 30 2:50 PM, Espoo, Weather by CustomWeather, © 2016

Note: Actual official high and low records may vary slightly from our data, if they occured in-between our weather recording intervals... More about our weather records

Advertising

Espoo Weather History for the Previous 24 Hours

Scroll right to see more
 ConditionsComfort  
Time TempWeatherWind HumidityBarometerVisibility
2:50 PM
Tue, Aug 30
59 °FBroken clouds.12 mph77%29.80 "HgN/A
2:20 PM57 °FBroken clouds.9 mph82%29.80 "HgN/A
1:50 PM55 °FPartly sunny.12 mph88%29.80 "HgN/A
1:20 PM55 °FBroken clouds.9 mph88%29.77 "HgN/A
12:50 PM55 °FPartly sunny.10 mph88%29.77 "HgN/A
12:20 PM55 °FBroken clouds.10 mph88%29.77 "HgN/A
11:50 AM54 °FPartly sunny.8 mph94%29.74 "HgN/A
11:20 AM54 °FPartly sunny.12 mph94%29.74 "HgN/A
10:50 AM54 °FPartly sunny.10 mph94%29.71 "Hg6 mi
10:20 AM54 °FDrizzle. Partly sunny.10 mph94%29.71 "Hg4 mi
9:50 AM54 °FSprinkles. Broken clouds.10 mph94%29.68 "HgN/A
9:20 AM54 °FSprinkles. Partly sunny.9 mph94%29.65 "HgN/A
8:50 AM54 °FSprinkles. Broken clouds.12 mph94%29.65 "HgN/A
8:20 AM52 °FSprinkles. Broken clouds.14 mph100%29.65 "HgN/A
7:50 AM52 °FSprinkles. Broken clouds.9 mph100%29.65 "HgN/A
7:20 AM54 °FSprinkles. Broken clouds.9 mph94%29.62 "HgN/A
6:50 AM54 °FSprinkles. Passing clouds.8 mph94%29.62 "Hg5 mi
6:20 AM54 °FRain showers. Passing clouds.9 mph94%29.62 "Hg4 mi
5:50 AM54 °FRain showers. Passing clouds.10 mph94%29.62 "Hg4 mi
5:20 AM52 °FSprinkles. Passing clouds.9 mph100%29.59 "Hg4 mi
4:50 AM52 °FLow clouds.9 mph100%29.59 "Hg5 mi
4:20 AM52 °FLow clouds.12 mph100%29.59 "HgN/A
3:50 AM52 °FLow clouds.7 mph100%29.59 "Hg5 mi
3:20 AM52 °FLow clouds.6 mph100%29.59 "Hg5 mi
2:50 AM52 °FDrizzle. Low clouds.7 mph100%29.59 "Hg4 mi
2:20 AM52 °FPassing clouds.8 mph100%29.59 "Hg3 mi
1:50 AM52 °FPassing clouds.9 mph100%29.59 "Hg4 mi
1:20 AM52 °FPassing clouds.9 mph100%29.59 "Hg4 mi
12:50 AM52 °FPassing clouds.10 mph100%29.59 "Hg4 mi
12:20 AM52 °FPassing clouds.9 mph100%29.62 "Hg4 mi
11:50 PM
Mon, Aug 29
52 °FPassing clouds.10 mph100%29.59 "Hg3 mi
11:20 PM52 °FPassing clouds.9 mph100%29.62 "Hg4 mi
10:50 PM52 °FPassing clouds.12 mph100%29.59 "Hg4 mi
10:20 PM52 °FPassing clouds.12 mph100%29.62 "Hg5 mi
9:50 PM52 °FPassing clouds.14 mph100%29.59 "HgN/A
9:20 PM54 °FPartly sunny.13 mph94%29.62 "HgN/A
8:50 PM54 °FPartly sunny.12 mph100%29.62 "HgN/A
8:20 PM54 °FDrizzle. Mostly cloudy.12 mph100%29.62 "HgN/A
7:50 PM55 °FDrizzle. Mostly cloudy.13 mph94%29.62 "Hg3 mi
7:20 PM55 °FDrizzle. Mostly cloudy.12 mph100%29.62 "Hg2 mi
6:50 PM55 °FDrizzle. Partly sunny.10 mph100%29.65 "Hg2 mi
6:20 PM55 °FDrizzle. Partly sunny.10 mph100%29.65 "Hg3 mi
5:50 PM55 °FDrizzle. Partly sunny.13 mph100%29.65 "Hg3 mi
5:20 PM55 °FDrizzle. Partly sunny.12 mph100%29.68 "Hg3 mi
4:50 PM55 °FPartly sunny.13 mph100%29.68 "HgN/A
4:20 PM55 °FLight rain. Partly sunny.14 mph100%29.68 "HgN/A
Weather by CustomWeather, © 2016

See weather overviewHow to use our weather pages